User: anonymous   Login
Location: Unspecified
(0.0000°N, 0.0000°E)
Time: 17:36:16
(UTC+00:00)
Language:

RISAT 1 - Orbit

View from above orbital plane
View from above orbital plane
View from above satellite
View from above satellite

Ground track
Ground track

The orbit data is extracted from the following two-line orbital elements,

1 38248U 12017A   16338.26864675  .00000247  00000-0  19587-4 0  9998
2 38248  97.5657 342.4827 0005236  10.3665  46.0715 15.08994674253694
Epoch (UTC): 03 December 2016 06:26:51
Eccentricity: 0.0005236
inclination: 97.5657°
perigee height: 535 km
apogee height: 543 km
right ascension of ascending node: 342.4827°
argument of perigee: 10.3665°
revolutions per day: 15.08994674
mean anomaly at epoch: 46.0715°
orbit number at epoch: 25369

The dashed part of the orbit path shows where the satellite is in the earth's shadow,  

DLR